[[{"header":{"parameterUnit":"m.s-1","parameterCategory":2,"la1":30.2991,"la2":30.254,"lo1":-89.0895,"lo2":-89.0444,"dy":0.0017,"dx":0.0017,"nx":28,"ny":28,"refTime":"2023-08-31T21:00:00:Z","depth":"0","parameterNumber":2,"parameterNumberName":"U-component_of_CURRENTS"},"data":[0,0,0,0,0,0,0,0,0,0,0,0,0,0,0,0,0,0,0,0,0,0,0,0,0,0,0,0,0,0,0,0,0,0,0,0,0,0,0,0,0,0,0,0,0,0,0,0,0,0,0,0,0,0,0,0,0,0,0.326,0.326,0,0.324,0.324,0.3239,0.3218,0.3219,0.3219,0.3219,0.3154,0.3152,0.3151,0,0,0,0,0,0,0,0,0,0,0,0,0,0.3221,0.3222,0.326,0.326,0.326,0.324,0.324,0.3239,0.3218,0.3219,0.3219,0.3219,0.3155,0.3153,0.315,0,0,0,0,0,0,0,0,0,0,0,0,0,0.3218,0.3222,0.326,0.3252,0.3251,0.3241,0.324,0.3239,0.3218,0.3219,0.3219,0.3219,0.3156,0.3153,0.315,0.3126,0,0,0.3141,0.314,0,0,0,0,0,0,0,0,0.3218,0.3219,0.3253,0.3252,0.3252,0.3237,0.3203,0.3201,0.3218,0.3225,0.3219,0.3219,0.3181,0.3176,0.3165,0.3123,0.312,0.3141,0.3139,0.3138,0.3137,0,0,0,0,0,0,0,0.3219,0.3219,0.3246,0.3253,0.3252,0.3229,0.3229,0.3201,0.3196,0.3224,0.3224,0.3231,0.318,0.3167,0.3163,0.3119,0.3141,0.3139,0.3137,0.3136,0.3105,0.3106,0,0,0,0,0,0,0.3235,0.322,0.3247,0.3246,0.3242,0.3231,0.323,0.3237,0.3198,0.3194,0.323,0.323,0.3172,0.3166,0.3161,0.3172,0.3138,0.3135,0.3134,0.3104,0.3105,0.3106,0,0,0,0,0,0,0.3234,0.3237,0.3248,0.3237,0.3237,0.3232,0.3239,0.3236,0.3232,0.3204,0.3198,0.323,0.3172,0.3165,0.3148,0.3168,0.3134,0.3131,0.3103,0.3104,0.3106,0.3169,0,0,0,0,0,0,0.3233,0.3237,0.3242,0.3238,0.3239,0.325,0.3239,0.3236,0.3237,0.3236,0.3201,0.3195,0.3172,0.3153,0.3145,0.3164,0.3129,0.3102,0.3104,0.3105,0.3166,0.3172,0.3178,0,0,0,0,0,0.3232,0.3241,0.3242,0.3246,0.3248,0.3251,0.3248,0.3241,0.3237,0.3236,0.3218,0.3197,0.3159,0.3151,0.3142,0.316,0.3101,0.3103,0.3105,0.3163,0.3171,0.3178,0,0,0,0,0,0,0.3228,0.324,0.3241,0.3254,0.3257,0.3249,0.3248,0.3246,0.3229,0.3228,0.3198,0.3191,0.3189,0.3163,0.3155,0.3158,0.313,0.3131,0.3177,0.3184,0.319,0.3217,0.3127,0,0,0,0,0,0.3231,0.3238,0.3247,0.3256,0.326,0.3254,0.3254,0.3253,0.3243,0.3236,0.3212,0.3194,0.3188,0.3178,0.3161,0.3151,0.3187,0.3161,0.3167,0.3173,0.319,0.3276,0.3293,0.3113,0.3113,0.3113,0,0,0.3231,0.324,0.3242,0.3255,0.3254,0.3255,0.3253,0.3259,0.3261,0.323,0.3218,0.3211,0.3191,0.3191,0.3188,0.3171,0.3242,0.3175,0.318,0.3194,0.3281,0.3299,0.3315,0.3114,0.3114,0.3114,0,0,0.3225,0.3244,0.324,0.3248,0.3259,0.326,0.3266,0.3263,0.3265,0.3257,0.3249,0.3261,0.3222,0.3231,0.3227,0.3256,0.3275,0.3246,0.3294,0.3378,0.3394,0.3409,0.3482,0.3503,0.3246,0.3247,0.3247,0,0.3221,0.3224,0.324,0.3242,0.3255,0.3264,0.327,0.327,0.3262,0.3291,0.326,0.3281,0.3248,0.3294,0.3296,0.3272,0.3323,0.3267,0.3389,0.3405,0.3419,0.349,0.3512,0.325,0.3249,0.3249,0.3249,0,0.3206,0.3215,0.3217,0.3224,0.3244,0.325,0.3271,0.3291,0.3298,0.3314,0.3362,0.3338,0.3368,0.3352,0.332,0.3408,0.3413,0.3393,0.3377,0.3441,0.3511,0.3534,0.3254,0.3253,0.3252,0.3252,0,0,0.3163,0.3198,0.3195,0.321,0.324,0.3256,0.3292,0.3341,0.3391,0.3392,0.3465,0.3449,0.3477,0.3475,0.3461,0.3508,0.3629,0.3489,0.3492,0.3573,0.3827,0.378,0.38,0.3641,0.3645,0.3648,0.3839,0,0.3137,0.3143,0.3176,0.3194,0.3203,0.3264,0.3304,0.3364,0.341,0.348,0.3517,0.3559,0.3513,0.3536,0.3588,0.3625,0.369,0.3579,0.3743,0.3748,0.3708,0.3824,0.3674,0.3827,0.386,0.3864,0.3867,0,0.3088,0.3111,0.3126,0.3204,0.3219,0.3244,0.3358,0.3395,0.3517,0.3567,0.3657,0.3686,0.3773,0.3706,0.3854,0.3794,0.3821,0.3837,0.3845,0.3797,0.3742,0.3766,0.3866,0.3791,0.3901,0.3898,0.3896,0,0.3029,0.3071,0.3091,0.3109,0.3198,0.3248,0.3304,0.3425,0.3502,0.3633,0.3719,0.3828,0.3896,0.3966,0.4006,0.3951,0.4164,0.4095,0.4087,0.4083,0.3984,0.3965,0.4039,0.4209,0.4209,0.4208,0.4208,0,0.2979,0.2992,0.3068,0.308,0.3157,0.3221,0.3327,0.3413,0.3555,0.3665,0.3761,0.3877,0.3965,0.4087,0.4097,0.4189,0.426,0.4136,0.4147,0.3999,0.398,0.3929,0.3867,0.4215,0.4214,0.4212,0.4211,0,0.2913,0.2944,0.2987,0.3087,0.3128,0.3185,0.3347,0.3426,0.3561,0.3715,0.3766,0.3965,0.4124,0.421,0.4338,0.4312,0.4268,0.4383,0.4199,0.4183,0.4054,0.4,0.3916,0.3805,0.4414,0.4414,0.4414,0,0.288,0.2888,0.2996,0.305,0.3101,0.32,0.3279,0.3418,0.3509,0.3763,0.3834,0.4048,0.4175,0.4382,0.4394,0.4461,0.4302,0.4332,0.4177,0.407,0.4018,0.3819,0.3715,0.4079,0.4076,0.4074,0.4072,0,0.2863,0.2898,0.2964,0.3043,0.3122,0.321,0.3321,0.3396,0.356,0.3695,0.388,0.4,0.4218,0.4241,0.4339,0.4342,0.4121,0.4288,0.4237,0.3825,0.3555,0.3444,0.393,0.4054,0.4055,0.4057,0.4058,0.4059,0.2886,0.2918,0.299,0.3063,0.3135,0.3183,0.322,0.3334,0.3452,0.3593,0.3794,0.3903,0.4048,0.4172,0.4161,0.4067,0.4007,0.3936,0.3905,0.3733,0.3533,0.3975,0.4061,0.4063,0.4065,0.4066,0.4067,0,0.2897,0.2931,0.3004,0.3065,0.3078,0.313,0.3218,0.3215,0.3279,0.3448,0.357,0.3697,0.3744,0.3822,0.3832,0.3712,0.3503,0.362,0.3317,0.3254,0.3731,0.3624,0.3545,0.3545,0.3545,0.3545,0.3545,0.3545,0.2923,0.2956,0.2964,0.2973,0.2998,0.2958,0.2968,0.298,0.3057,0.3113,0.317,0.3298,0.35,0.3606,0.3529,0.3444,0.319,0.3037,0.3037,0.3402,0.3428,0.3452,0.3341,0.3204,0.3203,0.2412,0.2407,0.2402]},{"header":{"parameterUnit":"m.s-1","parameterCategory":2,"la1":30.2991,"la2":30.254,"lo1":-89.0895,"lo2":-89.0444,"dy":0.0017,"dx":0.0017,"nx":28,"ny":28,"refTime":"2023-08-31T21:00:00:Z","depth":"0","parameterNumber":3,"parameterNumberName":"V-component_of_CURRENTS"},"data":[0,0,0,0,0,0,0,0,0,0,0,0,0,0,0,0,0,0,0,0,0,0,0,0,0,0,0,0,0,0,0,0,0,0,0,0,0,0,0,0,0,0,0,0,0,0,0,0,0,0,0,0,0,0,0,0,0,0,0.0197,0.0197,0,0.0146,0.0145,0.0145,0.0108,0.0108,0.0107,0.0107,0.0024,0.0022,0.002,0,0,0,0,0,0,0,0,0,0,0,0,0,0.0218,0.0218,0.0197,0.0197,0.0196,0.0146,0.0145,0.0145,0.0108,0.0108,0.0107,0.0107,0.0024,0.0022,0.002,0,0,0,0,0,0,0,0,0,0,0,0,0,0.0191,0.0218,0.0197,0.0172,0.017,0.0146,0.0145,0.0144,0.0108,0.0108,0.0107,0.0107,0.0025,0.0022,0.0019,0.0007,0,0,0.001,0.0009,0,0,0,0,0,0,0,0,0.0193,0.019,0.0177,0.0174,0.0171,0.0134,0.0122,0.0097,0.0108,0.013,0.0107,0.0107,0.0059,0.0053,0.0043,0.0003,-0.0001,0.001,0.0008,0.0007,0.0006,0,0,0,0,0,0,0,0.0195,0.0192,0.0176,0.0176,0.0173,0.0149,0.0145,0.0117,0.0095,0.0128,0.0126,0.0122,0.0057,0.0046,0.004,-0.0002,0.001,0.0007,0.0005,0.0004,-0.0051,-0.005,0,0,0,0,0,0,0.0206,0.0194,0.0177,0.0174,0.0183,0.0149,0.0144,0.0145,0.0096,0.0089,0.0122,0.012,0.0051,0.0044,0.0037,0.0036,0.0007,0.0004,0.0002,-0.0051,-0.0051,-0.005,0,0,0,0,0,0,0.0207,0.0205,0.0179,0.0184,0.0179,0.0149,0.015,0.0144,0.0136,0.0092,0.0084,0.012,0.0051,0.0042,0.002,0.0032,0.0002,-0.0,-0.0052,-0.0051,-0.005,0.0023,0,0,0,0,0,0,0.0208,0.0206,0.0211,0.0185,0.0179,0.0174,0.015,0.0144,0.0135,0.0132,0.0088,0.008,0.005,0.0025,0.0017,0.0027,-0.0003,-0.0052,-0.0051,-0.0051,0.002,0.0026,0.0031,0,0,0,0,0,0.0209,0.0222,0.0211,0.0209,0.0187,0.0175,0.017,0.0146,0.0135,0.0137,0.0107,0.0081,0.0024,0.0023,0.0013,0.0023,-0.0052,-0.0051,-0.0051,0.0017,0.0025,0.0031,0,0,0,0,0,0,0.0235,0.0219,0.0206,0.0214,0.0198,0.0169,0.0169,0.0152,0.013,0.0128,0.0085,0.0075,0.0058,0.0031,0.0031,0.0009,-0.0019,-0.002,0.0036,0.0043,0.0048,0.0075,-0.0005,0,0,0,0,0,0.0243,0.0248,0.0225,0.0231,0.0226,0.0198,0.019,0.0176,0.0153,0.0143,0.0112,0.008,0.0054,0.0042,0.0011,0.0002,-0.0012,0.0001,0.0007,0.0012,0.0026,0.0016,0.0023,-0.0048,-0.0048,-0.0048,0,0,0.0254,0.0246,0.0248,0.0237,0.0222,0.0226,0.0193,0.0189,0.0193,0.0137,0.0133,0.0095,0.0054,0.0042,0.0033,0.0022,0.0024,0.0013,0.0017,0.003,0.0018,0.0025,0.0031,-0.0047,-0.0047,-0.0047,0,0,0.0284,0.0273,0.0287,0.0278,0.0264,0.0249,0.0252,0.0227,0.0217,0.0204,0.0167,0.0142,0.01,0.0078,0.006,0.0078,0.005,0.0065,0.0119,0.0109,0.0115,0.0121,0.0117,0.0121,0.0073,0.0073,0.0073,0,0.0296,0.0312,0.0289,0.0301,0.0301,0.0266,0.0283,0.0269,0.024,0.0243,0.0213,0.0164,0.012,0.0118,0.0119,0.0092,0.0086,0.0099,0.0118,0.0123,0.0127,0.0122,0.0126,0.0076,0.0076,0.0076,0.0075,0,0.0335,0.0346,0.0355,0.0359,0.0357,0.0364,0.0346,0.0345,0.0324,0.031,0.0298,0.0239,0.0218,0.0192,0.0157,0.0168,0.0155,0.0124,0.0107,0.0139,0.0131,0.0134,0.0082,0.008,0.0079,0.0078,0,0,0.037,0.038,0.0384,0.0403,0.0389,0.04,0.0408,0.0415,0.0444,0.0395,0.0426,0.0355,0.033,0.0308,0.0261,0.0243,0.0253,0.0204,0.0201,0.021,0.0244,0.0223,0.0223,0.0231,0.0232,0.0232,0.0229,0,0.0406,0.045,0.0439,0.0483,0.0505,0.0482,0.0504,0.0505,0.0497,0.0518,0.0459,0.0463,0.0374,0.0374,0.034,0.0286,0.0264,0.0258,0.0203,0.0202,0.0187,0.0227,0.0224,0.022,0.0232,0.0232,0.0232,0,0.0448,0.0476,0.0524,0.0564,0.0573,0.0595,0.0638,0.0652,0.0662,0.0659,0.0643,0.0604,0.0577,0.0494,0.0416,0.0421,0.0339,0.0281,0.0279,0.0239,0.0186,0.0187,0.0224,0.0047,0.0236,0.0236,0.0236,0,0.05,0.0538,0.0584,0.0592,0.0627,0.0656,0.0681,0.0702,0.0745,0.0762,0.0804,0.0743,0.0747,0.0635,0.0507,0.047,0.0426,0.0358,0.0257,0.0255,0.0232,0.0226,0.0101,0.0295,0.0295,0.0295,0.0295,0,0.0547,0.0589,0.0619,0.0648,0.0732,0.0726,0.0817,0.0833,0.088,0.0967,0.0892,0.0955,0.0785,0.0734,0.0577,0.0449,0.048,0.0284,0.0259,0.0256,0.0253,0.0079,-0.0015,0.0295,0.0295,0.0295,0.0295,0,0.0603,0.0611,0.0677,0.073,0.076,0.0824,0.092,0.0988,0.1019,0.1134,0.1153,0.1136,0.1075,0.0895,0.0738,0.0568,0.0327,0.0361,0.0373,0.0348,0.0063,-0.0025,-0.0154,-0.0235,0.0249,0.0248,0.0248,0,0.0637,0.0673,0.0752,0.081,0.0842,0.0936,0.1012,0.1059,0.114,0.1262,0.1332,0.1316,0.1339,0.11,0.0794,0.0532,0.034,0.0333,0.024,0.0064,-0.0054,-0.0121,-0.0185,0.0239,0.0239,0.0238,0.0238,0,0.0715,0.0734,0.0797,0.0908,0.0995,0.1099,0.121,0.1297,0.1377,0.1496,0.1639,0.1676,0.1455,0.12,0.0823,0.0622,0.0209,0.0316,0.0132,-0.0066,-0.0143,-0.0238,0.0224,0.0235,0.0235,0.0236,0.0236,0.0236,0.0782,0.0837,0.091,0.1018,0.1121,0.125,0.1356,0.1486,0.1653,0.184,0.1859,0.1959,0.1565,0.1061,0.0751,0.0181,0.0179,-0.0014,-0.0102,-0.015,-0.0248,0.0212,0.0188,0.0189,0.0189,0.0189,0.0189,0,0.0855,0.0916,0.102,0.1143,0.1259,0.1299,0.148,0.1597,0.1815,0.2,0.2135,0.2022,0.1531,0.1006,0.0245,-0.0165,-0.0315,-0.0383,-0.0494,-0.0537,-0.0128,-0.0151,-0.0246,-0.0246,-0.0245,-0.0245,-0.0245,-0.0245,0.0902,0.1,0.1041,0.1231,0.1326,0.1491,0.1601,0.1797,0.1959,0.2197,0.2283,0.231,0.1933,0.0595,-0.0333,-0.055,-0.0815,-0.0882,-0.101,-0.0759,-0.0732,-0.0706,-0.0751,-0.097,-0.0971,-0.1383,-0.1387,-0.1391]}],[{"header":{"parameterUnit":"m.s-1","parameterCategory":2,"la1":30.2991,"la2":30.254,"lo1":-89.0895,"lo2":-89.0444,"dy":0.0017,"dx":0.0017,"nx":28,"ny":28,"refTime":"2023-08-31T21:00:00:Z","depth":"2","parameterNumber":2,"parameterNumberName":"U-component_of_CURRENTS"},"data":[0,0,0,0,0,0,0,0,0,0,0,0,0,0,0,0,0,0,0,0,0,0,0,0,0,0,0,0,0,0,0,0,0,0,0,0,0,0,0,0,0,0,0,0,0,0,0,0,0,0,0,0,0,0,0,0,0,0,0.2598,0.2598,0,0.2621,0.2621,0.2622,0.2624,0.2624,0.2624,0.2624,0.2619,0.2619,0.2619,0,0,0,0,0,0,0,0,0,0,0,0,0,0.2582,0.2582,0.2598,0.2598,0.2598,0.2621,0.2621,0.2622,0.2624,0.2624,0.2624,0.2623,0.2619,0.2619,0.2619,0,0,0,0,0,0,0,0,0,0,0,0,0,0.2595,0.2582,0.2598,0.2603,0.2604,0.2621,0.2621,0.2622,0.2624,0.2624,0.2624,0.2623,0.2619,0.2619,0.2619,0.2624,0,0,0.262,0.262,0,0,0,0,0,0,0,0,0.2594,0.2595,0.2602,0.2603,0.2604,0.262,0.2614,0.2621,0.2624,0.2615,0.2624,0.2623,0.2618,0.2618,0.2622,0.2624,0.2624,0.262,0.262,0.262,0.262,0,0,0,0,0,0,0,0.2593,0.2594,0.2606,0.2602,0.2603,0.2614,0.2615,0.2616,0.2616,0.2616,0.2617,0.2621,0.2618,0.2622,0.2622,0.2624,0.262,0.262,0.262,0.262,0.2665,0.2667,0,0,0,0,0,0,0.2591,0.2593,0.2605,0.2607,0.2599,0.2614,0.2615,0.2614,0.2617,0.2618,0.2621,0.2621,0.2622,0.2622,0.2622,0.266,0.262,0.262,0.262,0.2664,0.2666,0.2667,0,0,0,0,0,0,0.259,0.2591,0.2604,0.2602,0.2604,0.2615,0.2613,0.2615,0.2632,0.2621,0.2621,0.2638,0.2622,0.2622,0.2635,0.2658,0.262,0.262,0.2663,0.2665,0.2666,0.2715,0,0,0,0,0,0,0.259,0.2591,0.2595,0.2601,0.2604,0.2625,0.2614,0.2616,0.2634,0.2635,0.2635,0.2634,0.2622,0.2635,0.2635,0.2658,0.262,0.2661,0.2664,0.2666,0.2712,0.2719,0.2724,0,0,0,0,0,0.2589,0.2592,0.2595,0.2597,0.2608,0.2626,0.2629,0.2635,0.2636,0.2648,0.2648,0.2635,0.2649,0.2636,0.2636,0.2659,0.266,0.2663,0.2666,0.271,0.2717,0.2724,0,0,0,0,0,0,0.2579,0.2593,0.2597,0.2602,0.2619,0.2627,0.264,0.2645,0.2657,0.266,0.2647,0.2646,0.267,0.2658,0.2644,0.268,0.2654,0.2657,0.2688,0.2695,0.2701,0.2711,0.262,0,0,0,0,0,0.2581,0.2591,0.2606,0.261,0.2624,0.2637,0.2647,0.2654,0.2663,0.2668,0.2666,0.2669,0.268,0.2682,0.2687,0.2703,0.272,0.2719,0.2725,0.273,0.2739,0.2796,0.2808,0.2676,0.2676,0.2676,0,0,0.258,0.2587,0.2594,0.2611,0.2625,0.2643,0.2643,0.2666,0.2679,0.2665,0.2683,0.2692,0.269,0.2711,0.272,0.2704,0.2777,0.2733,0.2737,0.2744,0.28,0.2813,0.2824,0.2678,0.2677,0.2677,0,0,0.2581,0.2591,0.2605,0.2622,0.2649,0.2658,0.267,0.269,0.2701,0.2721,0.272,0.2745,0.2748,0.2758,0.2761,0.2804,0.2811,0.2806,0.2839,0.2895,0.2906,0.2917,0.2958,0.2972,0.2804,0.2804,0.2804,0,0.258,0.2591,0.2612,0.2629,0.2645,0.2667,0.2687,0.2702,0.2721,0.2745,0.2732,0.2778,0.2772,0.2813,0.2824,0.2818,0.2849,0.2811,0.2904,0.2914,0.2924,0.2964,0.2979,0.2807,0.2807,0.2806,0.2806,0,0.259,0.2604,0.2616,0.2642,0.2665,0.2686,0.2713,0.2739,0.2756,0.2779,0.2831,0.2832,0.2867,0.2866,0.2854,0.2923,0.2923,0.2909,0.2886,0.2941,0.2979,0.2993,0.2811,0.281,0.2809,0.2808,0,0,0.2566,0.2615,0.2616,0.2631,0.2676,0.2689,0.273,0.2777,0.2817,0.2842,0.2899,0.2917,0.2945,0.2952,0.2951,0.2985,0.3073,0.2978,0.298,0.3021,0.32,0.3146,0.3156,0.3084,0.3086,0.3089,0.3199,0,0.2566,0.2592,0.2622,0.2649,0.2667,0.2713,0.2751,0.2801,0.2845,0.2905,0.2941,0.2991,0.297,0.2998,0.3035,0.3075,0.3113,0.3044,0.3139,0.3142,0.309,0.3171,0.2922,0.2995,0.3213,0.3215,0.3217,0,0.2556,0.2577,0.2606,0.2657,0.2674,0.2699,0.2775,0.2817,0.2917,0.296,0.3034,0.307,0.3146,0.3106,0.3214,0.3178,0.3197,0.3209,0.3214,0.3157,0.3115,0.2976,0.3013,0.3241,0.3239,0.3237,0.3236,0,0.2511,0.2556,0.2577,0.2594,0.2664,0.2697,0.2744,0.284,0.2905,0.3011,0.3081,0.3165,0.3233,0.3276,0.3315,0.3283,0.342,0.3379,0.3344,0.334,0.3141,0.3115,0.3447,0.3447,0.3447,0.3447,0.3446,0,0.2488,0.2497,0.2558,0.257,0.2621,0.2677,0.276,0.2821,0.2942,0.3032,0.3117,0.3198,0.3283,0.3367,0.3369,0.3418,0.3476,0.3374,0.3376,0.3151,0.3125,0.3341,0.3327,0.3451,0.345,0.3449,0.3448,0,0.2431,0.2471,0.2495,0.2569,0.2603,0.2639,0.2776,0.2827,0.2956,0.3078,0.3123,0.3274,0.3383,0.3444,0.3528,0.35,0.353,0.3518,0.3244,0.3212,0.3397,0.3384,0.3509,0.3508,0.3508,0.3507,0.3507,0,0.2404,0.2413,0.2487,0.2517,0.2554,0.2634,0.2691,0.2822,0.2889,0.3108,0.3153,0.332,0.3394,0.3518,0.3502,0.3521,0.3549,0.3285,0.3169,0.342,0.3409,0.3397,0.3386,0.2926,0.2921,0.2917,0.2913,0,0.2363,0.2389,0.2421,0.2477,0.2528,0.2595,0.2688,0.2744,0.29,0.299,0.3117,0.3201,0.336,0.328,0.3331,0.3295,0.3263,0.3201,0.3557,0.2949,0.2879,0.2866,0.2872,0.2876,0.288,0.2882,0.2884,0.2886,0.2337,0.2346,0.239,0.2427,0.2486,0.2523,0.2531,0.2624,0.27,0.2792,0.2963,0.2997,0.3077,0.3031,0.295,0.29,0.3116,0.2961,0.297,0.2984,0.2897,0.283,0.2801,0.2804,0.2807,0.2809,0.2811,0,0.2289,0.2306,0.2337,0.2363,0.236,0.2439,0.2493,0.2452,0.2454,0.2591,0.2659,0.2508,0.2496,0.2569,0.2451,0.2466,0.24,0.2353,0.2236,0.2279,0.2316,0.2188,0.1907,0.1903,0.19,0.1897,0,0,0.2276,0.2262,0.2257,0.2219,0.2243,0.2194,0.2191,0.2151,0.2192,0.2155,0.2171,0.2382,0.2513,0.2166,0.214,0.1998,0.2107,0.1922,0.2662,0.2568,0.2599,0.2699,0.2557,0,0,0,0,0]},{"header":{"parameterUnit":"m.s-1","parameterCategory":2,"la1":30.2991,"la2":30.254,"lo1":-89.0895,"lo2":-89.0444,"dy":0.0017,"dx":0.0017,"nx":28,"ny":28,"refTime":"2023-08-31T21:00:00:Z","depth":"2","parameterNumber":3,"parameterNumberName":"V-component_of_CURRENTS"},"data":[0,0,0,0,0,0,0,0,0,0,0,0,0,0,0,0,0,0,0,0,0,0,0,0,0,0,0,0,0,0,0,0,0,0,0,0,0,0,0,0,0,0,0,0,0,0,0,0,0,0,0,0,0,0,0,0,0,0,0.0103,0.0103,0,0.0061,0.006,0.006,0.0029,0.0028,0.0028,0.0028,-0.0044,-0.0046,-0.0048,0,0,0,0,0,0,0,0,0,0,0,0,0,0.0117,0.0117,0.0103,0.0103,0.0102,0.0061,0.006,0.006,0.0029,0.0028,0.0028,0.0028,-0.0044,-0.0046,-0.0048,0,0,0,0,0,0,0,0,0,0,0,0,0,0.0096,0.0117,0.0103,0.0083,0.0081,0.0061,0.006,0.006,0.0029,0.0028,0.0028,0.0028,-0.0043,-0.0046,-0.0048,-0.006,0,0,-0.0056,-0.0057,0,0,0,0,0,0,0,0,0.0097,0.0095,0.0086,0.0084,0.0082,0.0051,0.0039,0.0019,0.0029,0.0047,0.0028,0.0028,-0.0014,-0.0019,-0.0028,-0.0063,-0.0066,-0.0057,-0.0058,-0.0059,-0.006,0,0,0,0,0,0,0,0.0098,0.0096,0.0085,0.0086,0.0083,0.0062,0.0059,0.0035,0.0017,0.0045,0.0043,0.0041,-0.0016,-0.0025,-0.003,-0.0067,-0.0056,-0.0059,-0.006,-0.0062,-0.0112,-0.0112,0,0,0,0,0,0,0.0109,0.0098,0.0087,0.0084,0.009,0.0062,0.0059,0.006,0.0018,0.0012,0.0041,0.0039,-0.0021,-0.0027,-0.0033,-0.0036,-0.0059,-0.0062,-0.0063,-0.0112,-0.0112,-0.0112,0,0,0,0,0,0,0.0109,0.0108,0.0088,0.0091,0.0087,0.0063,0.0064,0.0059,0.0052,0.0015,0.0008,0.0039,-0.0021,-0.0029,-0.0048,-0.004,-0.0063,-0.0065,-0.0113,-0.0112,-0.0112,-0.0051,0,0,0,0,0,0,0.011,0.0109,0.0114,0.0092,0.0087,0.0084,0.0064,0.0059,0.0052,0.0049,0.0011,0.0004,-0.0022,-0.0044,-0.0051,-0.0044,-0.0067,-0.0113,-0.0112,-0.0112,-0.0053,-0.0049,-0.0045,0,0,0,0,0,0.011,0.0122,0.0114,0.0113,0.0095,0.0084,0.008,0.0061,0.0052,0.0053,0.0028,0.0005,-0.0046,-0.0046,-0.0054,-0.0047,-0.0113,-0.0113,-0.0112,-0.0055,-0.005,-0.0045,0,0,0,0,0,0,0.0131,0.0119,0.011,0.0118,0.0104,0.008,0.008,0.0066,0.0047,0.0046,0.0008,-0.0,-0.0016,-0.004,-0.0038,-0.0061,-0.0083,-0.0084,-0.0037,-0.0032,-0.0028,-0.0008,-0.007,0,0,0,0,0,0.0138,0.0144,0.0126,0.0132,0.0128,0.0104,0.0098,0.0086,0.0066,0.0058,0.0031,0.0003,-0.002,-0.0032,-0.0058,-0.0068,-0.0091,-0.007,-0.0066,-0.0062,-0.0051,-0.0077,-0.0074,-0.011,-0.011,-0.011,0,0,0.0148,0.0142,0.0145,0.0136,0.0124,0.0128,0.01,0.0096,0.0099,0.0053,0.0047,0.0016,-0.002,-0.0033,-0.0041,-0.005,-0.0065,-0.0061,-0.0057,-0.0049,-0.0076,-0.0073,-0.007,-0.0109,-0.011,-0.011,0,0,0.0173,0.0165,0.0179,0.0171,0.016,0.0148,0.015,0.0129,0.0119,0.0108,0.0077,0.0054,0.0018,-0.0004,-0.002,-0.0007,-0.0043,-0.0018,0.0024,-0.0002,0.0001,0.0003,-0.0023,-0.0024,-0.0013,-0.0013,-0.0013,0,0.0184,0.0198,0.018,0.019,0.019,0.0161,0.0176,0.0163,0.0138,0.0137,0.0115,0.0069,0.0033,0.0024,0.0026,0.0004,-0.0016,0.0008,0.0005,0.0007,0.0008,-0.002,-0.0021,-0.001,-0.001,-0.001,-0.0011,0,0.0217,0.0227,0.0235,0.024,0.0238,0.0244,0.0227,0.0224,0.0207,0.0193,0.0177,0.0128,0.0104,0.0085,0.0058,0.0053,0.0034,0.0012,-0.0005,0.0016,-0.0015,-0.0018,-0.0005,-0.0006,-0.0007,-0.0008,0,0,0.0247,0.0257,0.026,0.0275,0.0265,0.0273,0.0278,0.0279,0.0297,0.0256,0.027,0.0215,0.019,0.017,0.013,0.0105,0.0089,0.007,0.0067,0.0051,0.0034,0.0006,-0.0,0.0068,0.0068,0.0068,0.0008,0,0.0279,0.0316,0.0307,0.0342,0.0361,0.0339,0.0354,0.0351,0.0339,0.0344,0.0291,0.0285,0.0223,0.0217,0.018,0.0118,0.0086,0.0107,0.0011,0.0008,-0.0014,-0.0003,0.0024,-0.0028,0.0005,0.0005,0.0005,0,0.0315,0.0338,0.0378,0.0408,0.0415,0.043,0.0456,0.0467,0.0461,0.0451,0.0427,0.0386,0.0346,0.0289,0.0189,0.0208,0.0128,0.0069,0.0065,0.0019,-0.0025,-0.0044,-0.0034,0.0,0.0,0.0001,0.0001,0,0.0358,0.0389,0.0427,0.0433,0.0459,0.0477,0.0496,0.0504,0.0537,0.0527,0.0548,0.0477,0.0462,0.0352,0.022,0.021,0.0106,0.0074,-0.0031,-0.0034,-0.004,-0.0043,-0.0001,-0.0001,-0.0001,-0.0001,-0.0001,0,0.0399,0.0432,0.0453,0.0477,0.0541,0.0535,0.0604,0.0609,0.0635,0.0697,0.0616,0.064,0.0479,0.0397,0.0257,0.011,0.0129,-0.0018,-0.0048,-0.0019,-0.002,-0.0019,-0.002,-0.0003,-0.0003,-0.0002,-0.0002,0,0.0443,0.0452,0.0503,0.0541,0.0565,0.0614,0.0691,0.0739,0.0753,0.0829,0.0834,0.0773,0.0668,0.0489,0.0314,0.0175,0.0024,-0.004,0.0003,-0.0022,-0.0109,-0.0106,-0.0152,-0.0153,-0.0154,-0.0155,-0.0156,0,0.0468,0.0496,0.056,0.0606,0.0629,0.0704,0.0763,0.0799,0.0862,0.092,0.0965,0.0887,0.0846,0.0566,0.0303,0.0049,0.0016,-0.0094,-0.0117,-0.0097,-0.0123,-0.0118,-0.0114,-0.0103,-0.0103,-0.0103,-0.0104,0,0.052,0.0536,0.0585,0.0679,0.0747,0.0837,0.0927,0.0997,0.1056,0.1113,0.1173,0.1144,0.0888,0.0638,0.028,0.0107,-0.0054,-0.0109,-0.0093,-0.007,-0.0057,-0.008,-0.0076,-0.0106,-0.0106,-0.0106,-0.0106,-0.0105,0.0562,0.0604,0.0666,0.0758,0.0846,0.0962,0.1049,0.1145,0.1259,0.135,0.1318,0.128,0.0999,0.0545,0.0239,-0.0082,-0.0068,-0.0175,-0.0172,-0.0169,-0.0153,-0.0143,-0.0206,-0.0206,-0.0206,-0.0206,-0.0207,0,0.0612,0.0662,0.0744,0.0855,0.0955,0.0997,0.115,0.1228,0.1369,0.1441,0.1474,0.1211,0.0927,0.0601,0.0128,-0.0156,-0.0176,-0.0245,-0.0198,-0.0193,-0.0189,-0.0174,-0.0233,-0.0234,-0.0235,-0.0235,0,0,0.0643,0.0723,0.076,0.0925,0.1011,0.1154,0.1249,0.1364,0.1447,0.1505,0.1491,0.1421,0.1038,0.0695,0.0309,0.0042,-0.0013,-0.0017,0.0035,0.0141,0.0148,-0.0118,-0.0085,0,0,0,0,0]}],[{"header":{"parameterUnit":"m.s-1","parameterCategory":2,"la1":30.2991,"la2":30.254,"lo1":-89.0895,"lo2":-89.0444,"dy":0.0017,"dx":0.0017,"nx":28,"ny":28,"refTime":"2023-08-31T21:00:00:Z","depth":"4","parameterNumber":2,"parameterNumberName":"U-component_of_CURRENTS"},"data":[0,0,0,0,0,0,0,0,0,0,0,0,0,0,0,0,0,0,0,0,0,0,0,0,0,0,0,0,0,0,0,0,0,0,0,0,0,0,0,0,0,0,0,0,0,0,0,0,0,0,0,0,0,0,0,0,0,0,0.1616,0.1617,0,0.1679,0.1679,0.168,0.1736,0.1737,0.1738,0.1738,0.1823,0.1825,0.1826,0,0,0,0,0,0,0,0,0,0,0,0,0,0.1534,0.1536,0.1616,0.1617,0.1618,0.1679,0.1679,0.168,0.1736,0.1737,0.1738,0.1739,0.1823,0.1825,0.1827,0,0,0,0,0,0,0,0,0,0,0,0,0,0.158,0.1536,0.1616,0.1653,0.1658,0.1678,0.1679,0.168,0.1736,0.1737,0.1738,0.1739,0.1822,0.1825,0.1827,0.1819,0,0,0.1834,0.1835,0,0,0,0,0,0,0,0,0.1577,0.1583,0.1647,0.1651,0.1656,0.1702,0.1682,0.1728,0.1735,0.1705,0.1738,0.174,0.1785,0.179,0.1798,0.1823,0.1826,0.1834,0.1836,0.1837,0.1837,0,0,0,0,0,0,0,0.1574,0.158,0.164,0.1648,0.1653,0.1664,0.1672,0.1691,0.1737,0.1708,0.1712,0.172,0.1787,0.1795,0.18,0.1828,0.1834,0.1836,0.1838,0.1839,0.1953,0.1955,0,0,0,0,0,0,0.1568,0.1577,0.1638,0.1642,0.1619,0.1665,0.1673,0.1685,0.1737,0.1746,0.1719,0.1723,0.1791,0.1797,0.1803,0.189,0.1837,0.1839,0.184,0.1952,0.1954,0.1956,0,0,0,0,0,0,0.1566,0.1572,0.1635,0.1611,0.162,0.1665,0.1678,0.1685,0.1732,0.1746,0.1755,0.1762,0.1792,0.18,0.1857,0.189,0.184,0.1842,0.195,0.1952,0.1955,0.2004,0,0,0,0,0,0,0.1563,0.1571,0.1594,0.1611,0.1622,0.1674,0.1677,0.1686,0.1733,0.1739,0.1784,0.1791,0.1793,0.1853,0.1859,0.1893,0.1844,0.1948,0.1951,0.1954,0.2,0.2008,0.2014,0,0,0,0,0,0.156,0.158,0.1594,0.1603,0.1645,0.1675,0.1683,0.1716,0.1735,0.1761,0.1795,0.1792,0.1877,0.1856,0.1863,0.1898,0.1946,0.195,0.1954,0.1997,0.2006,0.2014,0,0,0,0,0,0,0.1559,0.1588,0.1604,0.1634,0.1666,0.1686,0.1716,0.1737,0.1783,0.1802,0.1813,0.1822,0.1886,0.1886,0.1863,0.1941,0.1911,0.1916,0.1942,0.1951,0.1957,0.1951,0.1846,0,0,0,0,0,0.1566,0.1594,0.162,0.165,0.1667,0.1699,0.1722,0.1747,0.1781,0.1805,0.1835,0.1868,0.1898,0.1921,0.1948,0.1988,0.1993,0.2016,0.2023,0.2028,0.2029,0.2072,0.2083,0.1968,0.1968,0.1968,0,0,0.1574,0.1596,0.1613,0.1653,0.1681,0.1708,0.1717,0.1765,0.1796,0.1805,0.1872,0.19,0.1917,0.1967,0.1994,0.1975,0.2065,0.2033,0.2038,0.2035,0.2077,0.2088,0.2098,0.197,0.197,0.1969,0,0,0.1593,0.1625,0.1652,0.1679,0.1728,0.1743,0.1765,0.181,0.1843,0.19,0.1917,0.1966,0.2015,0.2031,0.2042,0.2103,0.2104,0.212,0.2148,0.219,0.22,0.2208,0.223,0.224,0.2119,0.2119,0.2119,0,0.1605,0.1638,0.1666,0.1697,0.1722,0.1762,0.1793,0.1826,0.1888,0.1918,0.1933,0.202,0.2039,0.2086,0.211,0.2118,0.214,0.2112,0.2199,0.2207,0.2215,0.2235,0.2246,0.2122,0.2122,0.2121,0.2121,0,0.1633,0.1671,0.1691,0.1739,0.1769,0.1808,0.1846,0.1896,0.1941,0.1972,0.2052,0.2083,0.2132,0.2149,0.2149,0.2216,0.2213,0.2206,0.2174,0.2229,0.2247,0.2257,0.2126,0.2125,0.2124,0.2123,0,0,0.1623,0.1696,0.1707,0.1731,0.1797,0.1816,0.1878,0.1932,0.1977,0.2046,0.2102,0.2161,0.2194,0.2209,0.2225,0.2258,0.2333,0.2262,0.2263,0.2278,0.2426,0.2284,0.228,0.2351,0.2353,0.2355,0.2417,0,0.1639,0.1693,0.1729,0.1781,0.1805,0.186,0.1905,0.1965,0.2024,0.2091,0.214,0.2205,0.2211,0.2249,0.2288,0.2329,0.2362,0.2316,0.2375,0.2377,0.2238,0.2288,0.2361,0.2424,0.2426,0.2428,0.2429,0,0.1647,0.1682,0.1736,0.1794,0.1811,0.1853,0.193,0.1982,0.2077,0.2127,0.2204,0.2249,0.2324,0.2316,0.2412,0.239,0.2415,0.2433,0.2436,0.2289,0.2251,0.2359,0.2447,0.2445,0.2444,0.2443,0.2442,0,0.1605,0.1678,0.172,0.1743,0.1821,0.1863,0.1913,0.2004,0.2055,0.2166,0.2225,0.2307,0.2378,0.2422,0.2477,0.2461,0.2568,0.2543,0.2432,0.2422,0.251,0.25,0.2601,0.2601,0.2601,0.2601,0.26,0,0.1586,0.162,0.171,0.1732,0.1781,0.1848,0.1921,0.1984,0.2086,0.2145,0.2252,0.2305,0.2416,0.2488,0.2505,0.2501,0.2597,0.244,0.243,0.2529,0.2521,0.2516,0.2506,0.2603,0.2602,0.2602,0.2602,0,0.1527,0.1594,0.1639,0.1732,0.1766,0.1803,0.1918,0.1957,0.2082,0.2166,0.2209,0.2344,0.2433,0.2514,0.2596,0.2533,0.2538,0.2511,0.2617,0.2612,0.2353,0.2345,0.2376,0.2371,0.2368,0.2364,0.2362,0,0.1496,0.1519,0.1624,0.1647,0.1696,0.1771,0.1814,0.194,0.1983,0.2161,0.2179,0.2328,0.2401,0.2408,0.2493,0.2514,0.2489,0.2467,0.2393,0.2343,0.2332,0.2329,0.2326,0.2356,0.2355,0.2354,0.2353,0,0.1426,0.1482,0.1516,0.1569,0.162,0.167,0.1748,0.1769,0.1911,0.205,0.2109,0.216,0.2261,0.2315,0.2364,0.2366,0.2462,0.2427,0.2434,0.2364,0.2319,0.2311,0.2312,0.234,0.2341,0.2343,0.2343,0,0.137,0.1369,0.1424,0.1454,0.1519,0.1534,0.1597,0.1649,0.172,0.1916,0.193,0.2091,0.2235,0.224,0.2271,0.2278,0.2237,0.215,0.217,0.2186,0.2094,0.2008,0.1927,0,0,0,0,0,0.1295,0.1274,0.1293,0.1318,0.1382,0.1421,0.1524,0.1592,0.1744,0.1738,0.1831,0.191,0.1979,0.2056,0.2026,0.2176,0.2237,0.2128,0.2144,0.2266,0.2282,0.2191,0,0,0,0,0,0,0.1234,0.125,0.1245,0.1205,0.1199,0.1253,0.1316,0.142,0.1429,0.1599,0.1652,0.1788,0.1887,0.1982,0.1988,0.2011,0.198,0.2232,0.2226,0.2258,0.2272,0.2284,0.2196,0,0,0,0,0]},{"header":{"parameterUnit":"m.s-1","parameterCategory":2,"la1":30.2991,"la2":30.254,"lo1":-89.0895,"lo2":-89.0444,"dy":0.0017,"dx":0.0017,"nx":28,"ny":28,"refTime":"2023-08-31T21:00:00:Z","depth":"4","parameterNumber":3,"parameterNumberName":"V-component_of_CURRENTS"},"data":[0,0,0,0,0,0,0,0,0,0,0,0,0,0,0,0,0,0,0,0,0,0,0,0,0,0,0,0,0,0,0,0,0,0,0,0,0,0,0,0,0,0,0,0,0,0,0,0,0,0,0,0,0,0,0,0,0,0,0.0096,0.0096,0,0.0067,0.0066,0.0066,0.0047,0.0047,0.0047,0.0047,-0.0007,-0.0008,-0.001,0,0,0,0,0,0,0,0,0,0,0,0,0,0.0103,0.0103,0.0096,0.0096,0.0095,0.0067,0.0066,0.0066,0.0047,0.0047,0.0047,0.0047,-0.0007,-0.0008,-0.001,0,0,0,0,0,0,0,0,0,0,0,0,0,0.0089,0.0103,0.0096,0.0083,0.0082,0.0067,0.0066,0.0066,0.0047,0.0047,0.0047,0.0047,-0.0006,-0.0008,-0.001,-0.0022,0,0,-0.0017,-0.0018,0,0,0,0,0,0,0,0,0.0089,0.0088,0.0085,0.0084,0.0083,0.0061,0.0049,0.0035,0.0047,0.0059,0.0047,0.0047,0.0014,0.001,0.0004,-0.0025,-0.0027,-0.0017,-0.0018,-0.0019,-0.002,0,0,0,0,0,0,0,0.009,0.0089,0.0083,0.0085,0.0083,0.0068,0.0066,0.0046,0.0036,0.0058,0.0057,0.0055,0.0013,0.0006,0.0002,-0.0028,-0.0017,-0.0019,-0.002,-0.0021,-0.0065,-0.0065,0,0,0,0,0,0,0.0098,0.009,0.0084,0.0083,0.0087,0.0068,0.0066,0.0067,0.0037,0.0033,0.0055,0.0054,0.001,0.0005,0.0001,-0.0004,-0.0019,-0.0021,-0.0022,-0.0065,-0.0065,-0.0065,0,0,0,0,0,0,0.0098,0.0098,0.0086,0.0086,0.0084,0.0068,0.007,0.0067,0.0063,0.0035,0.003,0.0055,0.0009,0.0003,-0.0012,-0.0007,-0.0022,-0.0024,-0.0065,-0.0065,-0.0065,-0.0021,0,0,0,0,0,0,0.0099,0.0098,0.0103,0.0087,0.0084,0.0082,0.007,0.0066,0.0062,0.0061,0.0033,0.0028,0.0009,-0.0008,-0.0014,-0.001,-0.0025,-0.0065,-0.0065,-0.0065,-0.0022,-0.0019,-0.0016,0,0,0,0,0,0.0099,0.0107,0.0104,0.0103,0.0091,0.0082,0.0079,0.0067,0.0062,0.0062,0.0045,0.0029,-0.0011,-0.001,-0.0016,-0.0013,-0.0065,-0.0065,-0.0065,-0.0024,-0.002,-0.0016,0,0,0,0,0,0,0.0112,0.0105,0.0101,0.0107,0.0097,0.0079,0.008,0.007,0.0057,0.0057,0.003,0.0024,0.0011,-0.0007,-0.0005,-0.0026,-0.0041,-0.0042,-0.0008,-0.0004,-0.0001,0.0014,-0.0027,0,0,0,0,0,0.0118,0.0123,0.0111,0.0116,0.0113,0.0097,0.0093,0.0085,0.0071,0.0065,0.0045,0.0024,0.0006,-0.0003,-0.0023,-0.0033,-0.0057,-0.0036,-0.0033,-0.003,-0.0023,-0.0053,-0.0052,-0.0064,-0.0064,-0.0064,0,0,0.0125,0.0122,0.0125,0.0119,0.0111,0.0113,0.0094,0.0092,0.0094,0.0061,0.0057,0.0034,0.0006,-0.0005,-0.0013,-0.0019,-0.0041,-0.003,-0.0027,-0.0022,-0.0053,-0.0052,-0.0051,-0.0064,-0.0064,-0.0064,0,0,0.0141,0.0138,0.0148,0.0142,0.0136,0.0128,0.013,0.0114,0.0108,0.0099,0.0077,0.0059,0.0031,0.0013,0.0,0.0007,-0.0025,-0.0001,0.0027,-0.0002,-0.0001,-0.0001,-0.0035,-0.0037,0.0002,0.0002,0.0002,0,0.0149,0.0161,0.0149,0.0155,0.0156,0.0138,0.0149,0.0139,0.0121,0.0118,0.0105,0.0067,0.004,0.0029,0.0031,0.0014,-0.0008,0.0018,0.0003,0.0003,0.0002,-0.0033,-0.0036,0.0004,0.0004,0.0004,0.0003,0,0.017,0.0179,0.0184,0.019,0.019,0.0195,0.0183,0.018,0.017,0.0159,0.0145,0.0107,0.0087,0.0072,0.0054,0.0042,0.0024,0.001,-0.0004,0.0006,-0.0031,-0.0036,0.0007,0.0006,0.0006,0.0005,0,0,0.0189,0.0198,0.0201,0.0214,0.021,0.0215,0.0219,0.0219,0.023,0.0201,0.0204,0.0166,0.0146,0.0131,0.01,0.0074,0.0046,0.0047,0.0044,0.0018,-0.0022,-0.0032,-0.0039,0.003,0.003,0.003,-0.005,0,0.021,0.0235,0.0232,0.0261,0.0274,0.0262,0.0272,0.027,0.026,0.0257,0.0216,0.0207,0.0169,0.0162,0.0128,0.0069,0.0036,0.0068,-0.0032,-0.0035,-0.0041,-0.0043,0.0028,-0.0054,-0.0055,-0.0055,-0.0056,0,0.023,0.0249,0.0279,0.0306,0.0311,0.0325,0.0344,0.0352,0.0339,0.033,0.0308,0.0274,0.0234,0.0199,0.0103,0.0126,0.0059,0.0007,0.0002,-0.0023,-0.0054,-0.0066,-0.0065,-0.0064,-0.0064,-0.0063,-0.0062,0,0.0256,0.0283,0.0313,0.0319,0.0342,0.0358,0.0375,0.0377,0.0397,0.038,0.0387,0.0327,0.0305,0.0214,0.0105,0.0105,-0.0008,-0.0024,-0.01,-0.0103,-0.0089,-0.0089,-0.0095,-0.0095,-0.0095,-0.0094,-0.0094,0,0.0278,0.0306,0.033,0.0348,0.0398,0.0398,0.0447,0.0451,0.0462,0.0495,0.0434,0.0432,0.0309,0.0229,0.012,-0.0003,-0.0,-0.0095,-0.0121,-0.007,-0.0067,-0.0093,-0.0092,-0.0097,-0.0097,-0.0096,-0.0096,0,0.03,0.0314,0.0356,0.0391,0.0412,0.0449,0.0509,0.054,0.0544,0.0581,0.058,0.0512,0.0406,0.027,0.0117,0.0027,-0.0099,-0.0147,-0.0083,-0.0106,-0.0179,-0.0174,-0.0234,-0.0235,-0.0236,-0.0237,-0.0237,0,0.0311,0.0333,0.0393,0.0429,0.045,0.0509,0.0554,0.0583,0.0619,0.063,0.0647,0.056,0.0496,0.0279,0.0121,-0.0092,-0.0124,-0.0192,-0.0184,-0.0172,-0.0192,-0.0186,-0.0181,-0.0239,-0.0239,-0.0239,-0.0239,0,0.0333,0.0354,0.0393,0.0467,0.0523,0.0593,0.0657,0.0691,0.0725,0.0728,0.0711,0.0597,0.0473,0.029,0.012,-0.0033,-0.0148,-0.0201,-0.0201,-0.0193,-0.0178,-0.0196,-0.019,-0.0242,-0.0242,-0.0241,-0.0241,0,0.0353,0.0382,0.0434,0.0502,0.058,0.0655,0.0688,0.0731,0.077,0.0778,0.0767,0.0632,0.0553,0.0319,0.0163,0.0009,-0.003,-0.0078,-0.0085,-0.0083,-0.002,0.0022,-0.0,0,0,0,0,0,0.0368,0.0405,0.0464,0.0544,0.0621,0.0669,0.0748,0.0771,0.0804,0.0805,0.0792,0.0678,0.0454,0.035,0.0197,0.0128,-0.0073,-0.0059,-0.0134,-0.0258,-0.0254,-0.0207,0,0,0,0,0,0,0.0379,0.0436,0.0464,0.0569,0.0625,0.0716,0.077,0.079,0.0791,0.0797,0.0681,0.0633,0.0411,0.0543,0.0193,0.0144,0.0074,-0.0163,-0.0167,-0.026,-0.0257,-0.0254,-0.0205,0,0,0,0,0]}]]